Miscellaneous Local Product
Issued by NWS North Platte, NE

Home | Current Version | Previous Version | Graphics & Text | Print | Product List | Glossary On
Versions: 1 2 3 4 5 6 7 8 9 10 11 12 13 14 15 16 17 18 19 20 21 22 23 24 25 26 27 28 29 30 31 32 33 34 35 36 37 38 39 40 41 42 43 44 45 46 47 48 49 50
000
AXUS43 KLBF 200610
MISLBF


WESTERN AND NORTH CENTRAL NEBRASKA HOURLY WEATHER ROUNDUP
NATIONAL WEATHER SERVICE NORTH PLATTE NE
100 AM CDT WED SEP 20 2017

NOTE: "FAIR" INDICATES FEW OR NO CLOUDS BELOW 12,000 FEET WITH NO
SIGNIFICANT WEATHER AND/OR OBSTRUCTIONS TO VISIBILITY.

NOTE: STATIONS NOT REPORTING VARIABLES SUCH AS SKY/WEATHER OR
PRESSURE ARE PROVIDED BY RAWS AND APRS NETWORKS AND ARE NOT UNDER
NATIONAL WEATHER SERVICE QUALITY CONTROL.

...OBSERVATIONS IN AND NEAR THE EASTERN PANHANDLE OF NEBRASKA...

CITY           SKY/WX    TMP DP  RH WIND       PRES   REMARKS
GORDON         CLOUDY    56  37  48 NW12G20   29.76S
CHADRON        CLOUDY    49  38  65 W7        29.80R
ALLIANCE       CLOUDY    53  32  44 NW14      29.81R
SIDNEY         CLOUDY    50  32  50 N13       29.83S
CRESCENT LAKE    N/A     54  32  43 NW15G23     N/A
$$

...OBSERVATIONS IN NORTHERN NEBRASKA AND FAR SOUTHERN SOUTH DAKOTA...

CITY           SKY/WX    TMP DP  RH WIND       PRES   REMARKS
WINNER         FAIR      57  49  74 NW14G22   29.68R
VALENTINE      PTCLDY    58  47  66 NW14G22   29.70R
THEDFORD       CLEAR     56  44  65 W3        29.73R
AINSWORTH      CLEAR     57  46  66 NW10G16   29.70R
O`NEILL        CLOUDY    63  50  63 N7        29.67R
ORD            CLOUDY    61  47  59 N9        29.67R
BROKEN BOW     CLEAR     62  46  55 N12       29.69R
VALENTINE NWR    N/A     59  42  53 NW14        N/A
HALSEY           N/A     57  46  67 NW5G12      N/A
BUTTE            N/A     61  49  65 MISG        N/A
CHAMBERS         N/A     62  47  58 N3          N/A
EWING            N/A     65  50  58 N5G13       N/A
$$

...OBSERVATIONS IN SOUTHWEST NEBRASKA AND FAR NORTHEAST COLORADO...

CITY           SKY/WX    TMP DP  RH WIND       PRES   REMARKS
WRAY           FAIR      50  32  50 W6        29.85R
IMPERIAL       CLEAR     54  33  45 NW12      29.80R
OGALLALA       CLEAR     50  38  64 W7        29.79R
NORTH PLATTE   CLEAR     50  43  77 NW6       29.75R
MCCOOK         CLEAR     57  40  52 NW9       29.74R
LEXINGTON      CLEAR     59  47  63 N5        29.71R
STAPLETON        N/A     53  43  68 CALM        N/A
GOTHENBURG       N/A     62  40  44 NW5         N/A
CALLAWAY         N/A     61  46  57 N9          N/A
$$

...OBSERVATIONS IN CENTRAL LINCOLN COUNTY AREA...

CITY           SKY/WX    TMP DP  RH WIND       PRES   REMARKS
N.P. AIRPORT   CLEAR     50  43  77 NW6       29.75R
N.P. DOWNTOWN    N/A     57  43  59 CALM        N/A
N.P. SOUTHEAST   N/A     57  42  57 CALM        N/A
N.P. HILLCREST   N/A     54  42  64 NW6         N/A
$$

...SOME OBSERVATIONS FROM AROUND THE REGION...

CITY           SKY/WX    TMP DP  RH WIND       PRES   REMARKS
DENVER         CLEAR     45  29  53 SE8       29.87R
LIMON          CLOUDY    41  29  62 N6        29.89S
ASPEN          CLOUDY    63  26  24 VRB5G20   29.96S
LARAMIE        CLOUDY    38  30  73 W10       30.00R WCI  31
CASPER         CLEAR     41  29  62 SW16      29.85F
CHEYENNE       CLOUDY    43  33  68 W22G37    29.89R
SCOTTSBLUFF    CLOUDY    55  33  43 W14G24    29.83R
GRAND ISLAND   CLEAR     66  51  58 NW24G31   29.67R
OMAHA          CLOUDY    78  68  71 S22G32    29.59S
SIOUX FALLS    LGT RAIN  63  63 100 NW7       29.63R
PIERRE         CLOUDY    56  44  64 NW30G37   29.62R
BISMARCK       PTCLDY    51  46  83 W12       29.58F
KANSAS CITY    CLEAR     78  69  73 S15       29.75S
HILL CITY      CLEAR     64  39  39 NW3       29.72R
WICHITA        PTCLDY    79  71  76 S17       29.70R
DODGE CITY     CLOUDY    75  59  57 S16G24    29.69R
OKLAHOMA CITY  PTCLDY    76  63  64 S10       29.77F
DALLAS         MOCLDY    84  71  65 S14       29.81F
AMARILLO       CLEAR     67  49  52 S10       29.80F
$$




USA.gov is the U.S. government's official web portal to all federal, state and local government web resources and services.